When you browse on this site, cookies collect data to enhance your experience and personalize the content and advertising you see.
Visit our Privacy Policy to learn more. By continuing to use the site, you agree to this use of cookies and data.
  • In Hungary
  • List of Countries
  • For 7 days
  • Water Temperature
  • Satellite Maps
  • Weather Map
  • News
  • Weather Widgets
  • user-avatar
    Login

    Hourly Weather Piraquara

    Today, 17 January, Thursday

    Time Temperature Precipitation Wind Pressure Humidity
    00:00 +23°C° 0.8 mm 1 mps 683 mmHg 88%
    01:00 +22°C° 0.8 mm 1 mps 683 mmHg 89%
    02:00 +22°C° 0.8 mm 1 mps 683 mmHg 90%
    03:00 +22°C° 0 mm 1 mps 683 mmHg 92%
    04:00 +22°C° 0.5 mm 1 mps 683 mmHg 92%
    05:00 +22°C° 0.5 mm 1 mps 683 mmHg 93%
    06:00 +21°C° 0.5 mm 1 mps 683 mmHg 93%
    07:00 +24°C° 0.3 mm 1 mps 684 mmHg 85%
    08:00 +26°C° 0.3 mm 1 mps 685 mmHg 77%
    09:00 +28°C° 0.3 mm 1 mps 685 mmHg 69%
    10:00 +30°C° 0.9 mm 1 mps 685 mmHg 64%
    11:00 +31°C° 0.9 mm 1 mps 685 mmHg 59%
    12:00 +33°C° 0.9 mm 1 mps 685 mmHg 54%
    13:00 +33°C° 0.2 mm 1 mps 685 mmHg 52%
    14:00 +32°C° 0.2 mm 1 mps 685 mmHg 51%
    15:00 +32°C° 0.2 mm 1 mps 684 mmHg 49%
    16:00 +31°C° 0.4 mm 1 mps 684 mmHg 55%
    17:00 +30°C° 0.4 mm 1 mps 684 mmHg 62%
    18:00 +29°C° 0.4 mm 1 mps 683 mmHg 68%
    19:00 +27°C° 1.2 mm 2 mps 683 mmHg 75%
    20:00 +25°C° 1.2 mm 2 mps 684 mmHg 81%
    21:00 +24°C° 1.2 mm 2 mps 684 mmHg 88%
    22:00 +23°C° 1.9 mm 2 mps 684 mmHg 90%
    23:00 +23°C° 1.9 mm 2 mps 684 mmHg 93%

    Tomorrow, 18 January, Friday

    Time Temperature Precipitation Wind Pressure Humidity
    00:00 +22°C° 1.9 mm 1 mps 685 mmHg 95%
    01:00 +22°C° 1.1 mm 1 mps 684 mmHg 95%
    02:00 +22°C° 1.1 mm 1 mps 684 mmHg 95%
    03:00 +20°C° 1.1 mm 0 mps 684 mmHg 95%
    04:00 +20°C° 0 mm 0 mps 684 mmHg 95%
    05:00 +19°C° 0 mm 0 mps 684 mmHg 95%
    06:00 +19°C° 0 mm 0 mps 683 mmHg 95%
    07:00 +20°C° 0 mm 0 mps 684 mmHg 92%
    08:00 +21°C° 0 mm 0 mps 684 mmHg 88%
    09:00 +24°C° 0 mm 1 mps 685 mmHg 85%
    10:00 +26°C° 0 mm 1 mps 685 mmHg 76%
    11:00 +28°C° 0 mm 1 mps 685 mmHg 67%
    12:00 +30°C° 0 mm 1 mps 685 mmHg 57%
    13:00 +30°C° 0.3 mm 2 mps 684 mmHg 60%
    14:00 +29°C° 0.3 mm 2 mps 684 mmHg 63%
    15:00 +29°C° 0.3 mm 2 mps 683 mmHg 65%
    16:00 +28°C° 1.6 mm 2 mps 683 mmHg 73%
    17:00 +26°C° 1.6 mm 1 mps 683 mmHg 80%
    18:00 +25°C° 1.6 mm 1 mps 682 mmHg 87%
    19:00 +24°C° 3.2 mm 1 mps 682 mmHg 90%
    20:00 +24°C° 3.2 mm 1 mps 683 mmHg 92%
    21:00 +23°C° 3.2 mm 1 mps 683 mmHg 94%
    22:00 +23°C° 1.1 mm 1 mps 683 mmHg 94%
    23:00 +21°C° 1.1 mm 0 mps 683 mmHg 94%

    Day after tomorrow, 19 January, Saturday

    Time Temperature Precipitation Wind Pressure Humidity
    00:00 +20°C° 1.1 mm 0 mps 683 mmHg 94%
    01:00 +20°C° 0.2 mm 0 mps 682 mmHg 94%
    02:00 +20°C° 0.2 mm 0 mps 682 mmHg 94%
    03:00 +20°C° 0.2 mm 0 mps 681 mmHg 94%
    04:00 +20°C° 0 mm 0 mps 681 mmHg 94%
    05:00 +20°C° 0 mm 0 mps 681 mmHg 94%
    06:00 +20°C° 0 mm 0 mps 681 mmHg 94%
    07:00 +21°C° 0 mm 0 mps 682 mmHg 90%
    08:00 +22°C° 0 mm 0 mps 682 mmHg 85%
    09:00 +23°C° 0 mm 0 mps 683 mmHg 81%
    10:00 +28°C° 0 mm 1 mps 683 mmHg 68%
    11:00 +30°C° 0 mm 1 mps 683 mmHg 56%
    12:00 +33°C° 0 mm 1 mps 684 mmHg 44%
    13:00 +32°C° 0.1 mm 1 mps 683 mmHg 46%
    14:00 +32°C° 0.1 mm 1 mps 682 mmHg 48%
    15:00 +32°C° 0.1 mm 1 mps 682 mmHg 51%
    16:00 +29°C° 2.8 mm 1 mps 682 mmHg 62%
    17:00 +27°C° 2.8 mm 1 mps 681 mmHg 74%
    18:00 +25°C° 2.8 mm 1 mps 681 mmHg 85%
    19:00 +24°C° 6.7 mm 1 mps 682 mmHg 88%
    20:00 +23°C° 6.7 mm 1 mps 682 mmHg 91%
    21:00 +23°C° 6.7 mm 1 mps 682 mmHg 94%
    22:00 +21°C° 2.4 mm 2 mps 683 mmHg 95%
    23:00 +21°C° 2.4 mm 2 mps 683 mmHg 95%

    20 January, Sunday

    Time Temperature Precipitation Wind Pressure Humidity
    00:00 +21°C° 2.4 mm 2 mps 683 mmHg 96%
    01:00 +20°C° 0.5 mm 2 mps 683 mmHg 96%
    02:00 +20°C° 0.5 mm 2 mps 683 mmHg 96%
    03:00 +21°C° 0.5 mm 1 mps 682 mmHg 97%
    04:00 +21°C° 0.3 mm 1 mps 682 mmHg 97%
    05:00 +20°C° 0.3 mm 1 mps 683 mmHg 97%
    06:00 +20°C° 0.3 mm 1 mps 683 mmHg 97%
    07:00 +20°C° 0.4 mm 1 mps 683 mmHg 97%
    08:00 +21°C° 0.4 mm 1 mps 684 mmHg 96%
    09:00 +21°C° 0.4 mm 1 mps 684 mmHg 96%
    10:00 +21°C° 0.4 mm 1 mps 684 mmHg 95%
    11:00 +22°C° 0.4 mm 1 mps 684 mmHg 94%
    12:00 +22°C° 0.4 mm 1 mps 684 mmHg 92%
    13:00 +23°C° 0.1 mm 1 mps 683 mmHg 89%
    14:00 +23°C° 0.1 mm 1 mps 683 mmHg 86%
    15:00 +24°C° 0.1 mm 1 mps 683 mmHg 82%
    16:00 +24°C° 0.1 mm 1 mps 683 mmHg 85%
    17:00 +23°C° 0.1 mm 1 mps 683 mmHg 87%
    18:00 +23°C° 0.1 mm 1 mps 683 mmHg 90%
    19:00 +22°C° 0.7 mm 1 mps 683 mmHg 92%
    20:00 +22°C° 0.7 mm 1 mps 683 mmHg 94%
    21:00 +21°C° 0.7 mm 1 mps 684 mmHg 97%
    22:00 +21°C° 0.5 mm 1 mps 684 mmHg 97%
    23:00 +21°C° 0.5 mm 1 mps 684 mmHg 97%

    21 January, Monday

    Time Temperature Precipitation Wind Pressure Humidity
    00:00 +21°C° 0.5 mm 1 mps 684 mmHg 97%
    01:00 +21°C° 0.1 mm 1 mps 683 mmHg 97%
    02:00 +19°C° 0.1 mm 0 mps 683 mmHg 97%
    03:00 +19°C° 0.1 mm 0 mps 682 mmHg 97%
    04:00 +19°C° 0 mm 0 mps 682 mmHg 97%
    05:00 +21°C° 0 mm 1 mps 683 mmHg 97%
    06:00 +21°C° 0 mm 1 mps 683 mmHg 97%
    07:00 +23°C° 0 mm 1 mps 683 mmHg 89%
    08:00 +24°C° 0 mm 1 mps 684 mmHg 81%
    09:00 +26°C° 0 mm 2 mps 685 mmHg 73%
    10:00 +27°C° 0.8 mm 2 mps 684 mmHg 74%
    11:00 +28°C° 0.8 mm 2 mps 684 mmHg 74%
    12:00 +29°C° 0.8 mm 2 mps 684 mmHg 75%
    13:00 +29°C° 1.7 mm 2 mps 684 mmHg 77%
    14:00 +28°C° 1.7 mm 2 mps 683 mmHg 78%
    15:00 +28°C° 1.7 mm 2 mps 683 mmHg 80%
    16:00 +28°C° 1.3 mm 1 mps 683 mmHg 81%
    17:00 +27°C° 1.3 mm 1 mps 683 mmHg 82%
    18:00 +26°C° 1.3 mm 1 mps 683 mmHg 83%
    19:00 +25°C° 0.5 mm 1 mps 683 mmHg 85%
    20:00 +24°C° 0.5 mm 1 mps 683 mmHg 87%
    21:00 +23°C° 0.5 mm 1 mps 683 mmHg 89%
    22:00 +23°C° 0 mm 1 mps 683 mmHg 90%
    23:00 +22°C° 0 mm 1 mps 683 mmHg 91%

    22 January, Tuesday

    Time Temperature Precipitation Wind Pressure Humidity
    00:00 +22°C° 0 mm 1 mps 683 mmHg 92%
    01:00 +22°C° 0 mm 1 mps 683 mmHg 91%
    02:00 +22°C° 0 mm 1 mps 682 mmHg 91%
    03:00 +22°C° 0 mm 1 mps 682 mmHg 91%
    04:00 +22°C° 0 mm 1 mps 682 mmHg 90%
    05:00 +22°C° 0 mm 1 mps 682 mmHg 90%
    06:00 +21°C° 0 mm 1 mps 682 mmHg 89%
    07:00 +24°C° 0 mm 2 mps 683 mmHg 80%
    08:00 +26°C° 0 mm 2 mps 684 mmHg 70%
    09:00 +28°C° 0 mm 3 mps 685 mmHg 61%
    10:00 +30°C° 0 mm 2 mps 685 mmHg 55%
    11:00 +31°C° 0 mm 2 mps 685 mmHg 50%
    12:00 +34°C° 0 mm 2 mps 684 mmHg 44%
    13:00 +34°C° 0.4 mm 2 mps 684 mmHg 48%
    14:00 +32°C° 0.4 mm 1 mps 684 mmHg 51%
    15:00 +32°C° 0.4 mm 1 mps 683 mmHg 54%
    16:00 +30°C° 2.2 mm 1 mps 683 mmHg 63%
    17:00 +29°C° 2.2 mm 1 mps 683 mmHg 73%
    18:00 +25°C° 2.2 mm 0 mps 683 mmHg 82%
    19:00 +26°C° 0.1 mm 1 mps 683 mmHg 84%
    20:00 +25°C° 0.1 mm 1 mps 683 mmHg 86%
    21:00 +24°C° 0.1 mm 1 mps 683 mmHg 88%
    22:00 +23°C° 0 mm 1 mps 683 mmHg 89%
    23:00 +23°C° 0 mm 1 mps 683 mmHg 89%
    Show more